Regional Weather Roundup
Issued by NWS Green Bay, WI

Home | Current Version | Previous Version | Text Only | Print | Product List | Glossary On
Versions: 1 2 3 4 5 6 7 8 9 10 11 12 13 14 15 16 17 18 19 20 21 22 23 24 25 26 27 28 29 30 31 32 33 34 35 36 37 38 39 40 41 42 43 44 45 46 47 48 49 50
000
ASUS43 KGRB 242211
RWRGRB

NORTH-CENTRAL AND NORTHEAST WISCONSIN REGIONAL WEATHER ROUNDUP
NATIONAL WEATHER SERVICE GREEN BAY WI
500 PM CDT SUN JUL 24 2016

WIZ005-009-010>012-018-019-242300-
NORTH CENTRAL WISCONSIN

CITY           SKY/WX    TMP DP  RH WIND       PRES   REMARKS
IRONWOOD       MOSUNNY   79  64  61 NW16      29.79S
MANITOWISH WTR MOSUNNY   80  64  58 W8        29.83S
ARBOR VITAE    SUNNY     82  64  54 W12G17    29.84S
EAGLE RIVER    MOSUNNY   81  60  48 W10       29.83S
LAND O LAKES   MOSUNNY   83  60  45 W9        29.83F
RHINELANDER    MOSUNNY   82  64  54 W8        29.84F
PHILLIPS       PTSUNNY   80  64  57 W10       29.86R
ANTIGO         MOSUNNY   82  65  56 W14       29.84S
TOMAHAWK       MOSUNNY   82  63  53 W10       29.85R
MERRILL        MOSUNNY   83  66  54 W14       29.84F
$$

WIZ013-073-242300-
NORTHEAST WISCONSIN

CITY           SKY/WX    TMP DP  RH WIND       PRES   REMARKS
IRON MOUNTAIN  MOSUNNY   85  64  49 W12G18    29.77S
MARINETTE      MOSUNNY   84  76  76 W6        29.77S HX  93
OCONTO         MOSUNNY   85  80  83 W9        29.76F HX  99
$$

WIZ017-030-035>037-045-242300-
CENTRAL WISCONSIN

CITY           SKY/WX    TMP DP  RH WIND       PRES   REMARKS
MEDFORD        MOSUNNY   80  65  58 W14       29.87R
WAUSAU         MOSUNNY   84  63  49 W16G22    29.83S
MOSINEE        MOSUNNY   82  64  54 W15G21    29.86R
MARSHFIELD     SUNNY     85  66  53 W15G21    29.86S
WISC RAPIDS    SUNNY     87  63  44 NW9       29.86S
STEVENS POINT  SUNNY     83  63  51 W12G18    29.84F
WAUPACA        SUNNY     89  67  48 W13       29.81F HX  91
SHAWANO        MOSUNNY   87  72  60 W9        29.79S HX  94
CLINTONVILLE   MOSUNNY   86  68  54 W14       29.80S
WAUTOMA        SUNNY     87  71  58 W12       29.83R HX  93
$$

WIZ038-039-048-051-242300-
FOX VALLEY

CITY           SKY/WX    TMP DP  RH WIND       PRES   REMARKS
NWS GREEN BAY  SUNNY     86  76  71 W13       29.79S HX  96
APPLETON       MOSUNNY   86  72  62 W13       29.80S HX  92
OSHKOSH        MOSUNNY   89  73  59 W12       29.80S HX  97
FOND DU LAC    SUNNY     90  75  61 W9G18     29.81S HX 100
$$

WIZ022-050-052-242300-
EAST CENTRAL WISCONSIN

CITY           SKY/WX    TMP DP  RH WIND       PRES   REMARKS
EPHRAIM        CLOUDY    78  75  91 SW5       29.77S
WASHINGTON ISL NOT AVBL
STURGEON BAY   CLOUDY    80  75  84 S7        29.79S
MANITOWOC      CLOUDY    84  76  76 SW5       29.79F HX  93
SHEBOYGAN      CLOUDY    89  78  70 W15G21    29.80R HX 103
$$

LMZ563-521-522-541>543-242300-
LAKESHORE

STATION/POSITION TIME  TEMP    WIND        PRES    VSBY  WAVE
                       AIR SEA DIR/SP/G                  HT/PER
                 (UTC) (F)     (DEG/KT/KT) (MB)    (MI)  (FT/S)
SHEBOYGAN LKSHOR 2200   71     170/ 12/ 14 1008.9R
KEWAUNEE LKSHORE 2100   62     170/  8/ 12 1008.2F
NORTHPORT PIER   2100   77     190/  1/  3 1008.1S
N MID LAKE BUOY  2150   70 68  220/ 16/ 17 1007.4F         4/ 6
S GREEN BAY BUOY 2100   77 75  190/  6/  6   N/A
CHAMBERS ISLAND  2100   76     200/  5/ 15 1008.1R
MENOMINEE LKSHOR 2100   79     220/  8/  9 1007.3F
$$




USA.gov is the U.S. government's official web portal to all federal, state and local government web resources and services.